Waarnemingen

Advertentie
Mijn weer
Emden, Duitsland (10200): temperatuur & dauwpunt: 22.05.2018 07:00:00 - 28.05.2018 07:00:00 (CEST)Emden, Duitsland (10200): temperatuur 5cm & temperatuur -5cm: 22.05.2018 07:00:00 - 28.05.2018 07:00:00 (CEST)Emden, Duitsland (10200): temperatuur -20cm & temperatuur -100cm: 22.05.2018 07:00:00 - 28.05.2018 07:00:00 (CEST)Emden, Duitsland (10200): windsnelheid & windstoten: 22.05.2018 07:00:00 - 28.05.2018 07:00:00 (CEST)Emden, Duitsland (10200): windrichting: 22.05.2018 07:00:00 - 28.05.2018 07:00:00 (CEST)Emden, Duitsland (10200): luchtdruk: 22.05.2018 07:00:00 - 28.05.2018 07:00:00 (CEST)Emden, Duitsland (10200): zicht: 22.05.2018 07:00:00 - 28.05.2018 07:00:00 (CEST)Emden, Duitsland (10200): Zonneschijnduur: 22.05.2018 07:00:00 - 28.05.2018 07:00:00 (CEST)Emden, Duitsland (10200): neerslag: 22.05.2018 07:00:00 - 28.05.2018 07:00:00 (CEST)
Datum & Tijd tt [°C] td [°C] tt 5cm [°C] tt -5cm [°C] tt -20cm [°C] tt -100cm [°C] ff [km/u] ff [kn] fx [km/u] fx [kn] dd ppp [hPa] vv [km] sd [min] rr [mm]
28.05.2018 07:00:00 15,5 14,2 15,4 18,2 21,2 12,5 10 5 16 9 ONO 1018,9 3,8 38 0,0
28.05.2018 06:00:00 14,3 13,9 13,6 17,8 21,5 12,5 7 4 11 6 ONO 1018,6 2,3 0 0,0
28.05.2018 05:00:00 14,3 13,9 13,4 18,1 21,8 12,5 6 4 16 9 ONO 1018,5 2,5 0 0,0
28.05.2018 04:00:00 14,9 14,4 14,0 18,6 22,1 12,5 8 4 20 11 NO 1018,5 3,1 0 0,0
28.05.2018 03:00:00 15,0 14,2 14,3 19,1 22,3 12,5 14 7 21 11 NO 1018,7 4,0 0 0,0
28.05.2018 02:00:00 15,4 14,4 14,7 19,7 22,6 12,5 13 7 19 10 NNO 1018,8 5 0 0,0
28.05.2018 01:00:00 16,5 14,1 15,3 20,5 22,8 12,5 11 6 20 11 NNO 1019,0 12 0 0,0
28.05.2018 00:00:00 18,2 14,4 17,1 21,2 23,1 12,5 14 7 22 12 ONO 1018,5 19 0 0,0
27.05.2018 23:00:00 18,4 14,5 17,0 22,1 23,2 12,5 10 5 19 11 ONO 1018,4 22 0 0,0
27.05.2018 22:00:00 20,3 14,5 18,9 23,3 23,3 12,4 10 5 18 10 ONO 1018,5 24 0 0,0
27.05.2018 21:00:00 22,0 14,7 21,3 24,8 23,3 12,4 15 8 25 13 ONO 1018,0 31 23 0,0
27.05.2018 20:00:00 24,3 12,5 24,7 26,1 23,3 12,4 19 10 31 17 ONO 1017,5 17 60 0,0
27.05.2018 19:00:00 24,6 12,8 24,4 27,1 23,1 12,4 17 9 29 16 ONO 1017,4 43 60 0,0
27.05.2018 18:00:00 25,1 13,6 26,4 28,4 22,9 12,4 16 9 31 17 ONO 1018,2 11 60 0,0
27.05.2018 17:00:00 24,9 14,0 27,8 30,8 22,5 12,4 20 11 30 16 ONO 1018,3 8 60 0,0
27.05.2018 16:00:00 25,4 13,3 28,9 31,3 22,1 12,4 18 10 32 17 ONO 1018,9 13 56 0,0
27.05.2018 15:00:00 24,7 12,8 28,0 31,3 21,6 12,4 18 10 37 20 O 1019,5 1,9 57 0,0
27.05.2018 14:00:00 24,4 13,4 28,0 31,0 21,2 12,4 18 10 34 18 O 1019,9 - 60 0,0
27.05.2018 13:00:00 23,4 12,6 26,8 29,7 20,8 12,4 19 10 30 16 ONO 1020,7 18 60 0,0
27.05.2018 12:00:00 22,6 13,4 25,6 28,3 20,4 12,4 19 10 29 16 ONO 1021,1 6 60 0,0
27.05.2018 11:00:00 22,2 13,5 25,1 26,6 20,2 12,4 16 9 27 14 O 1021,5 37 60 0,0
27.05.2018 10:00:00 20,8 13,4 23,2 24,1 20,1 12,3 17 9 27 15 O 1021,9 5 60 0,0
27.05.2018 09:00:00 19,1 13,1 21,1 21,5 20,2 12,3 16 9 24 13 ONO 1021,8 5 60 0,0
27.05.2018 08:00:00 17,1 12,2 19,2 19,0 20,4 12,3 12 7 18 10 NO 1021,8 12 60 0,0
27.05.2018 07:00:00 15,2 11,2 15,6 17,2 20,6 12,3 9 5 16 9 O 1022,2 32 60 0,0
27.05.2018 06:00:00 13,9 11,0 12,8 16,8 20,9 12,3 9 5 17 9 ONO 1022,2 12 9 0,0
27.05.2018 05:00:00 13,6 11,3 12,0 17,2 21,2 12,3 11 6 16 9 ONO 1022,1 21 0 0,0
27.05.2018 04:00:00 14,9 12,4 13,1 17,8 21,5 12,3 8 4 19 10 NO 1022,4 19 0 0,0
27.05.2018 03:00:00 15,6 12,4 13,7 18,2 21,8 12,3 10 6 17 9 ONO 1022,6 21 0 0,0
27.05.2018 02:00:00 16,0 12,4 13,3 18,9 22,0 12,3 9 5 14 7 ONO 1022,8 28 0 0,0
27.05.2018 01:00:00 16,8 12,2 14,8 19,6 22,3 12,3 9 5 13 7 ONO 1023,0 34 0 0,0
27.05.2018 00:00:00 17,8 12,5 16,0 20,5 22,5 12,3 9 5 18 10 ONO 1022,9 37 0 0,0
26.05.2018 23:00:00 19,0 13,5 17,2 21,4 22,7 12,2 10 5 16 9 NO 1022,8 34 0 0,0
26.05.2018 22:00:00 20,3 14,3 18,6 22,6 22,9 12,2 10 5 16 8 NO 1022,3 36 0 0,0
26.05.2018 21:00:00 22,0 14,1 20,4 23,9 22,9 12,2 9 5 22 12 NO 1022,1 39 45 0,0
26.05.2018 20:00:00 23,5 12,4 23,5 25,5 22,8 12,2 14 7 27 15 NO 1022,1 41 60 0,0
26.05.2018 19:00:00 25,0 12,4 24,6 27,1 22,7 12,2 18 10 29 16 NO 1021,9 8 60 0,0
26.05.2018 18:00:00 25,7 12,6 26,9 28,6 22,3 12,2 18 10 27 15 NO 1021,7 36 60 0,0
26.05.2018 17:00:00 26,3 11,0 29,1 31,0 21,9 12,2 14 8 35 19 NO 1022,0 7 60 0,0
26.05.2018 16:00:00 26,4 11,9 29,9 31,5 21,4 12,2 13 7 28 15 ONO 1022,1 9 60 0,0
26.05.2018 15:00:00 26,2 11,5 29,6 31,5 20,9 12,2 15 8 29 16 ONO 1022,3 4,8 60 0,0
26.05.2018 14:00:00 25,8 12,2 29,2 30,6 20,4 12,2 16 9 26 14 O 1022,5 4,8 60 0,0
26.05.2018 13:00:00 24,8 11,9 28,6 29,2 19,9 12,2 16 9 24 13 ONO 1022,5 4,6 60 0,0
26.05.2018 12:00:00 22,9 11,5 26,7 27,5 19,6 12,2 14 7 23 13 ONO 1022,5 14 60 0,0
26.05.2018 11:00:00 21,0 11,3 24,2 25,5 19,3 12,2 15 8 24 13 ONO 1022,7 10 60 0,0
26.05.2018 10:00:00 19,6 11,4 22,4 23,0 19,2 12,1 12 6 24 13 ONO 1022,8 28 60 0,0
26.05.2018 09:00:00 17,8 10,6 20,0 20,4 19,3 12,1 17 9 26 14 ONO 1022,7 12 60 0,0
26.05.2018 08:00:00 15,7 10,3 17,1 17,8 19,5 12,1 14 8 21 12 ONO 1022,5 4,1 60 0,0
26.05.2018 07:00:00 13,8 9,7 14,4 16,1 19,7 12,1 9 5 17 9 NO 1022,0 45 60 0,0
26.05.2018 06:00:00 11,8 8,5 10,4 15,5 20,0 12,1 7 4 11 6 NO 1021,6 21 7 0,0
26.05.2018 05:00:00 12,5 8,2 11,2 16,0 20,3 12,1 9 5 15 8 ONO 1021,7 41 0 0,0
26.05.2018 04:00:00 13,5 8,2 12,0 16,5 20,6 12,1 11 6 19 11 ONO 1021,7 47 0 0,0
26.05.2018 03:00:00 14,1 7,6 13,0 17,0 20,9 12,1 12 6 20 11 ONO 1021,7 45 0 0,0
26.05.2018 02:00:00 14,7 7,5 13,5 17,6 21,2 12,1 12 6 20 11 ONO 1021,7 46 0 0,0
26.05.2018 01:00:00 15,2 7,2 14,1 18,2 21,5 12,1 13 7 19 10 ONO 1021,7 53 0 0,0
26.05.2018 00:00:00 15,9 6,3 14,5 18,9 21,8 12,1 13 7 22 12 ONO 1021,5 51 0 0,0
25.05.2018 23:00:00 17,3 7,2 15,7 20,0 22,0 12,1 11 6 19 10 ONO 1021,3 48 0 0,0
25.05.2018 22:00:00 18,8 9,4 17,4 21,3 22,1 12,1 14 8 31 17 ONO 1020,8 41 0 0,0
25.05.2018 21:00:00 21,0 10,5 20,0 22,8 22,1 12,0 21 12 36 19 ONO 1019,7 25 9 0,0
25.05.2018 20:00:00 23,7 12,3 23,2 24,6 22,1 12,0 18 10 32 17 ONO 1019,2 15 27 0,0
25.05.2018 19:00:00 25,7 11,6 25,3 25,7 22,0 12,0 10 5 22 12 O 1018,9 17 18 0,0
25.05.2018 18:00:00 25,3 12,0 25,4 27,4 21,7 12,0 16 8 36 19 O 1019,3 11 41 0,0
25.05.2018 17:00:00 26,2 11,2 28,6 28,7 21,5 12,0 16 9 29 16 O 1019,3 6 23 0,0
25.05.2018 16:00:00 25,0 11,3 25,6 27,7 21,2 12,0 19 10 33 18 O 1019,5 8 3 0,0
25.05.2018 15:00:00 24,5 11,5 25,3 28,7 20,7 12,0 23 13 36 19 OZO 1019,7 5 27 0,0
25.05.2018 14:00:00 24,8 11,6 26,6 29,1 20,3 12,0 29 15 42 23 O 1019,7 2,7 51 0,0
25.05.2018 13:00:00 24,5 11,7 26,5 28,4 19,9 12,0 28 15 44 24 O 1019,9 19 59 0,0
25.05.2018 12:00:00 23,9 12,0 26,2 27,3 19,5 12,0 29 16 40 22 O 1020,1 24 60 0,0
25.05.2018 11:00:00 22,4 12,2 24,5 25,4 19,3 12,0 24 13 36 19 O 1020,2 15 60 0,0
25.05.2018 10:00:00 20,9 12,0 23,2 23,1 19,2 12,0 20 11 31 17 O 1020,4 1,5 60 0,0
25.05.2018 09:00:00 19,3 12,1 21,0 20,3 19,3 12,0 17 9 26 14 O 1020,4 1,6 60 0,0
25.05.2018 08:00:00 16,7 10,9 17,5 17,7 19,5 12,0 16 8 26 14 O 1020,1 8 37 0,0
25.05.2018 07:00:00 15,2 10,4 15,1 16,5 19,8 11,9 16 9 22 12 O 1019,8 5 55 0,0
25.05.2018 06:00:00 14,0 10,4 13,4 16,5 20,0 11,9 11 6 19 10 ONO 1019,6 54 7 0,0
25.05.2018 05:00:00 14,9 10,5 13,8 17,0 20,3 11,9 12 7 17 9 ONO 1019,5 32 0 0,0
25.05.2018 04:00:00 15,7 11,5 14,9 17,8 20,5 11,9 10 5 14 7 ONO 1019,8 30 0 0,0
25.05.2018 03:00:00 15,9 12,3 14,8 18,2 20,8 11,9 8 4 22 12 ONO 1020,0 26 0 0,0
25.05.2018 02:00:00 16,3 12,4 14,7 18,8 21,0 11,9 11 6 19 10 O 1020,3 20 0 0,2
25.05.2018 01:00:00 17,0 12,4 14,9 19,5 21,2 11,9 14 8 28 15 O 1020,6 18 0 0,0
25.05.2018 00:00:00 18,8 10,3 18,2 20,2 21,4 11,9 19 10 36 19 ONO 1020,0 38 0 0,0
24.05.2018 23:00:00 19,2 10,8 18,4 20,6 21,6 11,9 15 8 24 13 ONO 1020,0 37 0 0,0
24.05.2018 22:00:00 19,8 11,5 18,5 21,5 21,7 11,9 14 8 23 12 ONO 1019,6 38 0 0,0
24.05.2018 21:00:00 21,4 10,9 19,3 22,9 21,8 11,9 8 4 27 14 ONO 1019,3 29 13 0,0
24.05.2018 20:00:00 23,5 10,8 23,5 24,4 21,7 11,9 16 9 29 15 O 1019,1 24 55 0,0
24.05.2018 19:00:00 24,0 9,9 23,5 25,8 21,6 11,9 19 10 35 19 O 1019,1 8 50 0,0
24.05.2018 18:00:00 25,3 7,7 26,3 27,0 21,3 11,9 26 14 41 22 O 1019,5 7 60 0,0
24.05.2018 17:00:00 25,6 8,3 27,3 29,3 20,9 11,9 26 14 44 24 O 1019,8 3,5 60 0,0
24.05.2018 16:00:00 25,6 8,4 27,6 29,8 20,4 11,9 23 13 40 22 O 1020,4 1,7 60 0,0
24.05.2018 15:00:00 25,0 9,1 27,6 29,8 19,8 11,9 26 14 44 24 O 1021,0 6 60 0,0
24.05.2018 14:00:00 24,9 9,8 27,5 29,3 19,3 11,8 24 13 42 23 O 1021,5 12 60 0,0
24.05.2018 13:00:00 23,3 10,1 26,2 28,2 18,9 11,8 27 15 45 24 OZO 1021,9 3,4 60 0,0
24.05.2018 12:00:00 22,6 11,3 25,0 26,4 18,5 11,8 21 11 37 20 O 1022,5 2,3 60 0,0
24.05.2018 11:00:00 20,3 10,9 23,0 24,2 18,2 11,8 19 10 31 17 ONO 1022,9 8 60 0,0
24.05.2018 10:00:00 18,9 10,0 21,4 21,8 18,1 11,8 18 10 27 15 ONO 1023,1 6 60 0,0
24.05.2018 09:00:00 17,8 9,6 19,7 19,2 18,2 11,8 18 10 24 13 ONO 1023,1 11 60 0,0
24.05.2018 08:00:00 15,5 8,2 16,4 16,8 18,4 11,8 14 8 23 13 ONO 1023,6 6 60 0,0
24.05.2018 07:00:00 13,7 7,6 14,0 14,9 18,6 11,8 8 4 12 7 ONO 1023,5 4,0 60 0,0
24.05.2018 06:00:00 12,5 7,9 10,9 14,2 18,9 11,8 9 5 16 9 ONO 1023,5 20 6 0,0
24.05.2018 05:00:00 12,8 8,2 10,7 14,6 19,3 11,8 11 6 18 10 ONO 1023,7 26 0 0,0
24.05.2018 04:00:00 12,5 8,6 9,4 15,2 19,6 11,8 9 5 14 8 ONO 1024,1 25 0 0,0
24.05.2018 03:00:00 13,7 9,1 11,7 15,9 19,9 11,8 9 5 16 8 ONO 1024,1 30 0 0,0
24.05.2018 02:00:00 14,5 9,1 12,5 16,6 20,2 11,8 9 5 16 9 ONO 1024,1 32 0 0,0
24.05.2018 01:00:00 14,4 9,4 12,3 17,3 20,5 11,8 11 6 16 9 ONO 1024,1 31 0 0,0
24.05.2018 00:00:00 16,3 10,2 14,4 18,0 20,8 11,8 13 7 21 12 NO 1024,1 34 0 0,0
23.05.2018 23:00:00 15,8 10,5 14,3 18,8 21,1 11,8 12 6 16 9 NO 1023,8 33 0 0,0
23.05.2018 22:00:00 16,5 11,2 15,1 20,0 21,3 11,8 12 6 17 9 NNO 1023,4 33 0 0,0
23.05.2018 21:00:00 18,5 11,3 17,1 21,5 21,4 11,8 14 7 25 13 NNO 1022,9 21 39 0,0
23.05.2018 20:00:00 20,1 10,9 20,4 23,3 21,4 11,8 14 8 32 17 NNO 1022,7 19 55 0,0
23.05.2018 19:00:00 21,5 11,1 21,5 24,9 21,3 11,8 19 10 35 19 NNO 1022,5 10 51 0,0
23.05.2018 18:00:00 22,7 9,4 23,2 26,2 21,1 11,8 23 13 40 22 NO 1022,3 6 51 0,0
23.05.2018 17:00:00 22,9 9,8 23,4 27,9 20,7 11,7 13 7 34 18 ONO 1022,3 11 40 0,0
23.05.2018 16:00:00 24,5 7,9 27,5 29,8 20,2 11,7 19 10 31 17 ONO 1022,4 34 59 0,0
23.05.2018 15:00:00 25,0 8,7 28,7 29,5 19,7 11,7 16 9 30 16 ONO 1022,5 3,3 53 0,0
23.05.2018 14:00:00 23,0 8,9 24,1 28,6 19,2 11,7 21 12 35 19 O 1022,7 7 58 0,0
23.05.2018 13:00:00 23,9 9,5 27,5 28,2 18,8 11,7 22 12 35 19 ONO 1022,4 36 60 0,0
23.05.2018 12:00:00 23,1 9,3 25,8 26,7 18,4 11,7 20 11 37 20 ONO 1022,1 5 60 0,0
23.05.2018 11:00:00 21,9 9,4 24,2 24,7 18,1 11,7 18 10 31 17 ONO 1021,8 10 60 0,0
23.05.2018 10:00:00 19,6 9,7 22,0 22,5 17,9 11,7 16 8 23 12 ONO 1021,7 7 60 0,0
23.05.2018 09:00:00 17,8 9,5 20,0 20,7 17,9 11,7 15 8 25 14 ONO 1021,1 9 60 0,0
23.05.2018 08:00:00 16,7 9,6 18,1 18,1 18,0 11,7 14 7 23 12 ONO 1020,5 32 46 0,0
23.05.2018 07:00:00 15,3 10,2 15,0 16,3 18,2 11,7 9 5 12 7 NO 1019,8 28 0 0,0
23.05.2018 06:00:00 14,9 10,1 14,2 16,2 18,3 11,7 6 4 11 6 NO 1019,2 35 0 0,0
23.05.2018 05:00:00 15,5 9,9 14,7 16,4 18,5 11,7 9 5 13 7 NO 1018,8 34 0 0,0
23.05.2018 04:00:00 15,8 10,0 15,1 16,6 18,7 11,7 8 5 16 8 NO 1018,4 32 0 0,0
23.05.2018 03:00:00 15,8 11,0 15,2 16,9 19,0 11,7 10 5 16 8 NNO 1018,1 21 0 0,0
23.05.2018 02:00:00 14,5 11,3 13,6 17,0 19,2 11,7 8 5 12 6 NNO 1018,0 17 0 0,0
23.05.2018 01:00:00 15,5 11,1 14,3 17,6 19,4 11,7 7 4 8 5 NNO 1018,0 21 0 0,0
23.05.2018 00:00:00 15,5 12,0 12,8 18,0 19,6 11,7 5 3 6 3 N 1017,6 23 0 0,0
22.05.2018 23:00:00 15,7 12,3 13,1 18,7 19,8 11,7 4 2 23 12 OZO 1017,2 21 0 0,0
22.05.2018 22:00:00 18,7 9,7 18,0 19,9 19,9 11,7 13 7 30 16 O 1016,7 37 0 0,0
22.05.2018 21:00:00 18,7 9,6 18,3 20,9 20,0 11,7 13 7 26 14 NNO 1015,4 18 1 0,0
22.05.2018 20:00:00 19,8 9,0 19,3 22,0 20,0 11,7 18 10 29 15 NNO 1015,0 6 37 0,0
22.05.2018 19:00:00 21,3 9,7 21,3 23,5 19,8 11,7 21 11 37 20 NNO 1014,5 6 60 0,0
22.05.2018 18:00:00 22,4 9,7 23,5 24,6 19,5 11,7 25 14 39 21 NNO 1014,2 6 51 0,0
22.05.2018 17:00:00 23,6 10,2 26,2 27,3 19,1 11,7 18 10 29 16 NO 1014,1 13 49 0,0
22.05.2018 16:00:00 24,0 9,0 27,8 28,0 18,6 11,7 15 8 28 15 NO 1014,1 6 45 0,0
22.05.2018 15:00:00 23,4 7,9 27,1 28,6 18,0 11,7 16 8 29 15 ONO 1014,3 3,1 45 0,0
22.05.2018 14:00:00 22,2 9,0 24,0 27,9 17,4 11,7 17 9 34 18 O 1014,5 7 54 0,0
22.05.2018 13:00:00 22,6 10,4 26,6 25,9 16,9 11,7 19 10 38 20 O 1014,7 10 60 0,0
22.05.2018 12:00:00 21,8 8,4 24,6 24,4 16,5 11,7 21 12 33 18 O 1014,5 10 60 0,0
22.05.2018 11:00:00 20,0 10,3 23,6 21,7 16,4 11,7 14 7 21 11 ONO 1014,5 3,8 35 0,0
22.05.2018 10:00:00 17,0 10,5 18,2 17,8 16,3 11,6 9 5 16 9 ONO 1014,7 16 0 0,0
22.05.2018 09:00:00 16,2 9,6 16,7 16,9 16,3 11,6 11 6 17 9 O 1014,8 25 48 0,0
22.05.2018 08:00:00 13,8 9,5 13,7 14,6 16,5 11,6 7 4 13 7 ONO 1014,6 19 36 0,0
22.05.2018 07:00:00 12,5 8,8 12,2 13,4 16,7 11,6 8 4 14 7 ONO 1014,5 24 30 0,0

tt = temperatuur
td = dauwpunt
tt 5cm = temperatuur 5cm
tt -5cm = temperatuur -5cm
tt -20cm = temperatuur -20cm
tt -100cm = temperatuur -100cm
ff = windsnelheid
fx = windstoten
dd = windrichting
ppp = luchtdruk
vv = zicht
sd = Zonneschijnduur
rr = neerslag

Weerstations in de omgeving